This is the latest recevied weather packets stored in our database for station/object DB0TV-13. If no packets are shown the sender has not sent any weather packets the latest 10 day(s).
| Time | Temp. | Humidity | Pressure | Rain* | Wind** | Luminosity | Snow |
|---|---|---|---|---|---|---|---|
| 1777482018 | 15.56° C | 41% | 1024.7 hPa | 0 mm | - | 220 W/m² | - |
| 1777481421 | 15.56° C | 42% | 1024.6 hPa | 0 mm | - | 250 W/m² | - |
| 1777480838 | 16.11° C | 43% | 1024.7 hPa | 0 mm | - | 276 W/m² | - |
| 1777480220 | 16.11° C | 42% | 1024.6 hPa | 0 mm | - | 305 W/m² | - |
| 1777479619 | 16.11° C | 42% | 1024.6 hPa | 0 mm | - | 332 W/m² | - |
| 1777479018 | 16.11° C | 41% | 1024.6 hPa | 0 mm | - | 360 W/m² | - |
| 1777478420 | 16.11° C | 41% | 1024.7 hPa | 0 mm | - | 387 W/m² | - |
| 1777477820 | 16.11° C | 41% | 1024.5 hPa | 0 mm | - | 414 W/m² | - |
| 1777477220 | 16.67° C | 39% | 1024.6 hPa | 0 mm | - | 443 W/m² | - |
| 1777476618 | 16.11° C | 39% | 1024.6 hPa | 0 mm | - | 469 W/m² | - |
| 1777476020 | 16.67° C | 39% | 1024.8 hPa | 0 mm | - | 493 W/m² | - |
| 1777475420 | 17.22° C | 36% | 1024.8 hPa | 0 mm | - | 520 W/m² | - |
| 1777474820 | 16.67° C | 35% | 1024.8 hPa | 0 mm | - | 546 W/m² | - |
| 1777474218 | 16.67° C | 38% | 1024.7 hPa | 0 mm | - | 565 W/m² | - |
| 1777473620 | 16.67° C | 38% | 1024.7 hPa | 0 mm | - | 590 W/m² | - |
| 1777473020 | 17.22° C | 38% | 1024.7 hPa | 0 mm | - | 613 W/m² | - |
| 1777472420 | 16.11° C | 38% | 1024.7 hPa | 0 mm | - | 634 W/m² | - |
| 1777471820 | 16.67° C | 38% | 1024.7 hPa | 0 mm | - | 652 W/m² | - |
| 1777471220 | 17.22° C | 38% | 1024.9 hPa | 0 mm | - | 672 W/m² | - |
| 1777470620 | 16.67° C | 40% | 1024.8 hPa | 0 mm | - | 687 W/m² | - |
| 1777470020 | 16.67° C | 39% | 1024.8 hPa | 0 mm | - | 701 W/m² | - |
| 1777469420 | 16.67° C | 39% | 1024.8 hPa | 0 mm | - | 722 W/m² | - |
| 1777468820 | 16.67° C | 38% | 1025 hPa | 0 mm | - | 738 W/m² | - |
| 1777468220 | 16.11° C | 40% | 1024.9 hPa | 0 mm | - | 754 W/m² | - |
| 1777467620 | 15.56° C | 40% | 1024.9 hPa | 0 mm | - | 765 W/m² | - |
* Rain latest hour (hover to see other rain measurements)
** Current wind speed in m/s (hover to see current wind gust speed)